Time,TemperatureF,DewpointF,PressureIn,WindDirection,WindDirectionDegrees,WindSpeedMPH,WindSpeedGustMPH,Humidity,HourlyPrecipIn,Conditions,Clouds,dailyrainin,SoftwareType,DateUTC
2013-06-24 00:13:00,55.0,35.0,-100.00,North,352,3.0,8.0,47,0.00,,,0.00,,2013-06-24 06:13:00,
2013-06-24 00:34:00,55.0,35.0,-100.00,North,352,3.0,8.0,47,0.00,,,0.00,,2013-06-24 06:34:00,
2013-06-24 00:43:00,55.0,35.0,-100.00,North,352,3.0,8.0,47,0.00,,,0.00,,2013-06-24 06:43:00,
2013-06-24 00:51:00,49.0,35.0,-100.00,SW,235,2.0,5.0,59,0.00,,,0.00,,2013-06-24 06:51:00,
2013-06-24 01:13:00,49.0,35.0,-100.00,SW,235,2.0,5.0,59,0.00,,,0.00,,2013-06-24 07:13:00,
2013-06-24 01:26:00,49.0,35.0,-100.00,SW,235,2.0,5.0,59,0.00,,,0.00,,2013-06-24 07:26:00,
2013-06-24 01:34:00,49.0,35.0,-100.00,SW,235,2.0,5.0,59,0.00,,,0.00,,2013-06-24 07:34:00,
2013-06-24 01:46:00,49.0,35.0,-100.00,SW,235,2.0,5.0,59,0.00,,,0.00,,2013-06-24 07:46:00,
2013-06-24 01:51:00,45.0,35.0,-100.00,SSE,164,2.0,3.0,68,0.00,,,0.00,,2013-06-24 07:51:00,
2013-06-24 02:13:00,45.0,35.0,-100.00,SSE,164,2.0,3.0,68,0.00,,,0.00,,2013-06-24 08:13:00,
2013-06-24 02:25:00,45.0,35.0,-100.00,SSE,164,2.0,3.0,68,0.00,,,0.00,,2013-06-24 08:25:00,
2013-06-24 02:34:00,45.0,35.0,-100.00,SSE,164,2.0,3.0,68,0.00,,,0.00,,2013-06-24 08:34:00,
2013-06-24 02:45:00,45.0,35.0,-100.00,SSE,164,2.0,3.0,68,0.00,,,0.00,,2013-06-24 08:45:00,
2013-06-24 03:14:00,43.0,34.0,-100.00,SW,225,2.0,4.0,71,0.00,,,0.00,,2013-06-24 09:14:00,
2013-06-24 03:25:00,43.0,34.0,-100.00,SW,225,2.0,4.0,71,0.00,,,0.00,,2013-06-24 09:25:00,
2013-06-24 03:35:00,43.0,34.0,-100.00,SW,225,2.0,4.0,71,0.00,,,0.00,,2013-06-24 09:35:00,
2013-06-24 03:44:00,43.0,34.0,-100.00,SW,225,2.0,4.0,71,0.00,,,0.00,,2013-06-24 09:44:00,
2013-06-24 03:51:00,41.0,34.0,-100.00,SSW,192,2.0,5.0,76,0.00,,,0.00,,2013-06-24 09:51:00,
2013-06-24 04:13:00,41.0,34.0,-100.00,SSW,192,2.0,5.0,76,0.00,,,0.00,,2013-06-24 10:13:00,
2013-06-24 04:23:00,41.0,34.0,-100.00,SSW,192,2.0,5.0,76,0.00,,,0.00,,2013-06-24 10:23:00,
2013-06-24 04:35:00,41.0,34.0,-100.00,SSW,192,2.0,5.0,76,0.00,,,0.00,,2013-06-24 10:35:00,
2013-06-24 05:14:00,40.0,33.0,-100.00,WSW,243,2.0,6.0,77,0.00,,,0.00,,2013-06-24 11:14:00,
2013-06-24 05:26:00,40.0,33.0,-100.00,WSW,243,2.0,6.0,77,0.00,,,0.00,,2013-06-24 11:26:00,
2013-06-24 05:34:00,40.0,33.0,-100.00,WSW,243,2.0,6.0,77,0.00,,,0.00,,2013-06-24 11:34:00,
2013-06-24 05:43:00,40.0,33.0,-100.00,WSW,243,2.0,6.0,77,0.00,,,0.00,,2013-06-24 11:43:00,
2013-06-24 05:51:00,39.0,33.0,-100.00,SW,217,2.0,4.0,80,0.00,,,0.00,,2013-06-24 11:51:00,
2013-06-24 06:23:00,39.0,33.0,-100.00,SW,217,2.0,4.0,80,0.00,,,0.00,,2013-06-24 12:23:00,
2013-06-24 06:36:00,39.0,33.0,-100.00,SW,217,2.0,4.0,80,0.00,,,0.00,,2013-06-24 12:36:00,
2013-06-24 06:45:00,39.0,33.0,-100.00,SW,217,2.0,4.0,80,0.00,,,0.00,,2013-06-24 12:45:00,
2013-06-24 07:42:00,41.0,35.0,-100.00,SSW,212,3.0,5.0,79,0.00,,,0.00,,2013-06-24 13:42:00,
2013-06-24 07:51:00,48.0,35.0,-100.00,SSE,158,4.0,9.0,61,0.00,,,0.00,,2013-06-24 13:51:00,
2013-06-24 08:22:00,48.0,35.0,-100.00,SSE,158,4.0,9.0,61,0.00,,,0.00,,2013-06-24 14:22:00,
2013-06-24 08:36:00,48.0,35.0,-100.00,SSE,158,4.0,9.0,61,0.00,,,0.00,,2013-06-24 14:36:00,
2013-06-24 08:43:00,48.0,35.0,-100.00,SSE,158,4.0,9.0,61,0.00,,,0.00,,2013-06-24 14:43:00,
2013-06-24 08:51:00,56.0,37.0,-100.00,SSW,199,3.0,6.0,48,0.00,,,0.00,,2013-06-24 14:51:00,
2013-06-24 09:34:00,56.0,37.0,-100.00,SSW,199,3.0,6.0,48,0.00,,,0.00,,2013-06-24 15:34:00,
2013-06-24 09:45:00,56.0,37.0,-100.00,SSW,199,3.0,6.0,48,0.00,,,0.00,,2013-06-24 15:45:00,
2013-06-24 10:43:00,63.0,38.0,-100.00,NE,56,7.0,19.0,39,0.00,,,0.00,,2013-06-24 16:43:00,
2013-06-24 11:51:00,76.0,37.0,-100.00,ENE,66,6.0,16.0,24,0.00,,,0.00,,2013-06-24 17:51:00,
2013-06-24 12:34:00,76.0,37.0,-100.00,ENE,66,6.0,16.0,24,0.00,,,0.00,,2013-06-24 18:34:00,
2013-06-24 12:45:00,76.0,37.0,-100.00,ENE,66,6.0,16.0,24,0.00,,,0.00,,2013-06-24 18:45:00,
2013-06-24 12:51:00,79.0,33.0,-100.00,SW,222,9.0,16.0,19,0.00,,,0.00,,2013-06-24 18:51:00,
2013-06-24 13:13:00,79.0,33.0,-100.00,SW,222,9.0,16.0,19,0.00,,,0.00,,2013-06-24 19:13:00,
2013-06-24 13:24:00,79.0,33.0,-100.00,SW,222,9.0,16.0,19,0.00,,,0.00,,2013-06-24 19:24:00,
2013-06-24 13:42:00,79.0,33.0,-100.00,SW,222,9.0,16.0,19,0.00,,,0.00,,2013-06-24 19:42:00,
2013-06-24 15:24:00,78.0,31.0,-100.00,SSW,210,6.0,22.0,18,0.00,,,0.00,,2013-06-24 21:24:00,
2013-06-24 15:35:00,78.0,31.0,-100.00,SSW,210,6.0,22.0,18,0.00,,,0.00,,2013-06-24 21:35:00,
2013-06-24 15:45:00,78.0,31.0,-100.00,SSW,210,6.0,22.0,18,0.00,,,0.00,,2013-06-24 21:45:00,
2013-06-24 15:51:00,75.0,35.0,-100.00,WSW,250,8.0,17.0,23,0.00,,,0.00,,2013-06-24 21:51:00,
2013-06-24 16:51:00,78.0,37.0,-100.00,WSW,258,7.0,21.0,23,0.00,,,0.00,,2013-06-24 22:51:00,
2013-06-24 17:24:00,78.0,37.0,-100.00,WSW,258,7.0,21.0,23,0.00,,,0.00,,2013-06-24 23:24:00,
2013-06-24 17:33:00,78.0,37.0,-100.00,WSW,258,7.0,21.0,23,0.00,,,0.00,,2013-06-24 23:33:00,
2013-06-24 17:43:00,78.0,37.0,-100.00,WSW,258,7.0,21.0,23,0.00,,,0.00,,2013-06-24 23:43:00,
2013-06-24 17:51:00,75.0,35.0,-100.00,West,275,7.0,16.0,23,0.00,,,0.00,,2013-06-24 23:51:00,
2013-06-24 18:22:00,75.0,35.0,-100.00,West,275,7.0,16.0,23,0.00,,,0.00,,2013-06-25 00:22:00,
2013-06-24 18:33:00,75.0,35.0,-100.00,West,275,7.0,16.0,23,0.00,,,0.00,,2013-06-25 00:33:00,
2013-06-24 18:45:00,75.0,35.0,-100.00,West,275,7.0,16.0,23,0.00,,,0.00,,2013-06-25 00:45:00,
2013-06-24 18:51:00,70.0,34.0,-100.00,WSW,246,6.0,14.0,27,0.00,,,0.00,,2013-06-25 00:51:00,
2013-06-24 19:23:00,70.0,34.0,-100.00,WSW,246,6.0,14.0,27,0.00,,,0.00,,2013-06-25 01:23:00,
2013-06-24 19:44:00,70.0,34.0,-100.00,WSW,246,6.0,14.0,27,0.00,,,0.00,,2013-06-25 01:44:00,
2013-06-24 20:24:00,68.0,35.0,-100.00,WSW,252,6.0,16.0,29,0.00,,,0.00,,2013-06-25 02:24:00,
2013-06-24 20:35:00,68.0,35.0,-100.00,WSW,252,6.0,16.0,29,0.00,,,0.00,,2013-06-25 02:35:00,
2013-06-24 20:43:00,68.0,35.0,-100.00,WSW,252,6.0,16.0,29,0.00,,,0.00,,2013-06-25 02:43:00,
2013-06-24 20:51:00,65.0,34.0,-100.00,West,267,2.0,11.0,32,0.00,,,0.00,,2013-06-25 02:51:00,
2013-06-24 21:27:00,65.0,34.0,-100.00,West,267,2.0,11.0,32,0.00,,,0.00,,2013-06-25 03:27:00,
2013-06-24 21:37:00,65.0,34.0,-100.00,West,267,2.0,11.0,32,0.00,,,0.00,,2013-06-25 03:37:00,
2013-06-24 21:46:00,65.0,34.0,-100.00,West,267,2.0,11.0,32,0.00,,,0.00,,2013-06-25 03:46:00,
2013-06-24 21:51:00,59.0,44.0,-100.00,WNW,290,6.0,22.0,57,0.00,,,0.00,,2013-06-25 03:51:00,
2013-06-24 22:11:00,59.0,44.0,-100.00,WNW,290,6.0,22.0,57,0.00,,,0.00,,2013-06-25 04:11:00,
2013-06-24 22:22:00,59.0,44.0,-100.00,WNW,290,6.0,22.0,57,0.00,,,0.00,,2013-06-25 04:22:00,
2013-06-24 22:34:00,59.0,44.0,-100.00,WNW,290,6.0,22.0,57,0.00,,,0.00,,2013-06-25 04:34:00,
2013-06-24 22:42:00,59.0,44.0,-100.00,WNW,290,6.0,22.0,57,0.00,,,0.00,,2013-06-25 04:42:00,
2013-06-24 22:51:00,57.0,45.0,-100.00,NW,305,4.0,13.0,63,0.00,,,0.00,,2013-06-25 04:51:00,
2013-06-24 23:22:00,57.0,45.0,-100.00,NW,305,4.0,13.0,63,0.00,,,0.00,,2013-06-25 05:22:00,
2013-06-24 23:32:00,57.0,45.0,-100.00,NW,305,4.0,13.0,63,0.00,,,0.00,,2013-06-25 05:32:00,
2013-06-24 23:44:00,57.0,45.0,-100.00,NW,305,4.0,13.0,63,0.00,,,0.00,,2013-06-25 05:44:00,
2013-06-24 23:51:00,54.0,46.0,-100.00,South,189,5.0,10.0,74,0.00,,,0.00,,2013-06-25 05:51:00,